Flag for Namibia Weather past 2 weeks in Windhoek, Namibia

Now
75 °F

Clear.


Feels Like: 75 °F
Forecast: 47 / 78 °F
Wind: 3 mph from Northwest

Location: Windhoek

Current Time: Aug 4, 2015 at 5:40:15 PM

Latest Report: Aug 4, 2015 at 5:00 PM


Visibility: 10 mi

Pressure: 30.30 "Hg (24.98 "Hg at 1680m altitude)

Humidity: 12%

Dew point: 19 °F

Location of WindhoekLocation

Historic Weather in Windhoek — Graph

°F

Windhoek temperature yesterday

Maximum temperature yesterday: 64 °F (at 10:00 AM)
Minimum temperature yesterday: 46 °F (at 4:00 AM)
Average temperature yesterday: 54 °F

Past Weeks' High & Low Weather Summary

 TemperatureHumidityPressure
High79 °F (Aug 4, 3:00 PM)65% (Jul 25, 7:00 AM)30.42 "Hg (Jul 25, 7:00 AM)
Low32 °F (Jul 26, 6:00 AM)2% (Jul 30, 12:00 PM)30.12 "Hg (Jul 20, 4:00 PM)
Average55 °F21%30.25 "Hg
* Reported Jul 20 4:00 PM — Aug 4 4:00 PM, Windhoek, Weather by CustomWeather, © 2015

Note: Actual official high and low records may vary slightly from our data, if they occured in-between our weather recording intervals... More about our weather records

Advertising

Windhoek weather history for previous 24 hours

 ConditionsComfort  
Time TempWeatherWind HumidityBarometerVisibility
4:00 PM
Tue, Aug 4
77 °FSunny.5 mph11%30.30 "Hg10 mi
3:00 PM79 °FSunny.5 mph12%30.27 "Hg10 mi
2:00 PM77 °FSunny.3 mph13%30.30 "Hg10 mi
1:00 PM75 °FSunny.3 mph13%30.33 "Hg10 mi
12:00 PM73 °FSunny.5 mph15%30.36 "Hg10 mi
11:00 AM72 °FSunny.3 mph17%30.36 "Hg10 mi
10:00 AM66 °FSunny.3 mph19%30.36 "Hg10 mi
9:00 AM64 °FSunny.3 mph19%30.36 "Hg10 mi
6:00 AM50 °FSunny.6 mph30%30.33 "Hg10 mi
4:00 AM52 °FCool.5 mph28%30.33 "HgN/A
3:00 AM52 °FCool.7 mph30%30.33 "HgN/A
2:00 AM52 °FCool.7 mph30%30.33 "HgN/A
1:00 AM52 °FCool.6 mph28%30.33 "HgN/A
12:00 AM54 °FCool.5 mph26%30.33 "HgN/A
11:00 PM
Mon, Aug 3
55 °FRefreshingly cool.5 mph24%30.33 "HgN/A
10:00 PM57 °FRefreshingly cool.5 mph23%30.33 "HgN/A
9:00 PM59 °FRefreshingly cool.2 mph21%30.33 "HgN/A
8:00 PM64 °FMild.1 mph16%30.30 "HgN/A
Weather by CustomWeather, © 2015

See weather overviewHow to use our weather pages